Torna al catalogo

FENGYUN 1C DEB

AttivoSSO
NORAD 35125·DEBRIS·🇨🇳 China

Lanciato May 10, 1999 da Taiyuan Satellite Launch Center

Loading…

Prossimi Passaggi (prossime 24 ore)

TLE

In scadenzaSource: Space-Track

Epoca: Sep 5, 2026, 05:33 UTC

1 35125U 99025DLD 26248.23154196  .00001422  00000-0  50964-3 0  9990
2 35125  98.2169 251.0188 0050254 215.6801 144.1023 14.34689307351017

Traccia FENGYUN 1C DEB in tempo reale con AllMySat

Download on the App Store